Location: Chagrin Falls Park
(41.4139°N, 81.3865°W)
Time: 23:34:56
(UTC+00:00)

STARLINK-2649 - Pass Details

Date: 31 July 2021
Orbit: 546 x 548 km, 53.1° (Epoch: 20 September)

Event Time Altitude Azimuth Distance (km) Brightness Sun altitude
Rises 01:45:42 0° 302° (WNW) 2,758 9.4 -10.7°
Reaches altitude 10° 01:48:04 10° 294° (WNW) 1,857 7.7 -11.0°
Maximum altitude 01:51:57 36° 227° (SW) 891 4.8 -11.6°
Enters shadow 01:55:18 13° 163° (SSE) 1,659 5.6 -12.1°
